This demonstration page uses our WeatherBlox Daily Observations layout. Learn more.

Left ArrowRight Arrow

Hourly Observations for July 29, 2016

Temp ( °F °C ) Dew Point ( °F °C ) Humidity (%) Winds ( mph kmh ) Pressure ( in mb ) Visibility ( mi km ) Precip ( " mm )
12:15 am 00:15 Clear with Mist and Fog 64 17.8 63 17.1 96 96 N N/A 30.03 1017 5 8 N/A
12:35 am 00:35 Clear with Mist and Fog 64 17.6 62 16.8 95 95 N N/A 30.03 1017 3 4 N/A
12:55 am 00:55 Clear with Mist and Fog 63 17 61 16.2 95 95 ENE 3 6 30.03 1017 5 8 N/A
1:15 am 01:15 Clear 64 17.5 62 16.7 95 95 N N/A 30.03 1017 10 16 N/A
1:35 am 01:35 Clear 63 17.3 62 16.4 94 94 N 3 6 30.03 1017 10 16 N/A
1:55 am 01:55 Mostly Cloudy 64 17.8 63 17 95 95 N 3 6 30.03 1017 7 11 N/A
2:15 am 02:15 Cloudy 65 18.1 63 17.3 95 95 NNW 5 7 30.03 1017 7 11 N/A
2:35 am 02:35 Partly Cloudy 64 18 63 17.1 95 95 N N/A 30.03 1017 7 11 N/A
2:55 am 02:55 Clear with Mist and Fog 64 17.5 62 16.6 95 95 N N/A 30.03 1017 5 8 N/A
3:15 am 03:15 Clear 63 17.2 62 16.4 95 95 N N/A 30.03 1017 7 11 N/A
3:35 am 03:35 Clear 63 17.1 61 16.3 95 95 N N/A 30.00 1016 7 11 N/A
3:55 am 03:55 Clear with Mist and Fog 62 16.6 61 16 96 96 N N/A 30.00 1016 4 6 N/A
4:15 am 04:15 Clear 62 16.5 60 15.8 96 96 N 3 6 30.03 1017 7 11 N/A
4:35 am 04:35 Clear 62 16.5 60 15.8 96 96 N N/A 30.03 1017 7 11 N/A
4:55 am 04:55 Partly Cloudy 61 16.1 60 15.5 96 96 N N/A 30.03 1017 7 11 N/A
5:15 am 05:15 Cloudy 62 16.6 61 16 96 96 N N/A 30.00 1016 7 11 N/A
5:35 am 05:35 Partly Cloudy 62 16.5 60 15.8 96 96 N N/A 30.03 1017 10 16 N/A
5:55 am 05:55 Partly Cloudy 61 16.3 60 15.6 96 96 N N/A 30.03 1017 7 11 N/A
6:15 am 06:15 Mostly Cloudy 62 16.5 60 15.8 96 96 N N/A 30.03 1017 7 11 N/A
6:35 am 06:35 Cloudy 62 16.8 61 16.1 96 96 N N/A 30.00 1016 10 16 N/A
6:55 am 06:55 Cloudy 63 17 61 16.1 94 94 N N/A 30.03 1017 7 11 N/A
7:15 am 07:15 Cloudy 63 17.3 62 16.5 95 95 NNE 3 6 30.03 1017 7 11 N/A
7:35 am 07:35 Cloudy 65 18.2 63 17.2 94 94 N 6 9 30.03 1017 10 16 N/A
7:55 am 07:55 Partly Cloudy 65 18.4 63 17.1 92 92 NNE 5 7 30.03 1017 10 16 N/A
8:15 am 08:15 Partly Cloudy 65 18.4 63 17.1 92 92 NE 5 7 30.06 1018 10 16 N/A
8:35 am 08:35 Cloudy 65 18.5 63 17.1 92 92 NE 5 7 30.06 1018 10 16 N/A
8:55 am 08:55 Cloudy 65 18.6 63 17.3 92 92 NE 5 7 30.06 1018 10 16 N/A
9:15 am 09:15 Cloudy 66 19 64 17.6 92 92 NE 3 6 30.06 1018 10 16 N/A
9:35 am 09:35 Mostly Cloudy 69 20.3 64 17.9 86 86 ENE 3 6 30.06 1018 10 16 N/A
9:55 am 09:55 Partly Cloudy 69 20.7 64 17.9 84 84 N N/A 30.03 1017 10 16 N/A
10:15 am 10:15 Sunny 71 21.6 65 18.1 81 81 N N/A 30.03 1017 10 16 N/A
10:35 am 10:35 Sunny 71 21.9 63 17 74 74 N N/A 30.03 1017 10 16 N/A
10:55 am 10:55 Sunny 73 22.7 64 18 75 75 N N/A 30.03 1017 10 16 N/A
11:15 am 11:15 Sunny 73 23 64 17.7 72 72 N N/A 30.03 1017 10 16 N/A
11:35 am 11:35 Sunny 74 23.5 63 17.1 67 67 ENE 3 6 30.03 1017 10 16 N/A
11:55 am 11:55 Partly Cloudy 75 23.8 61 16.3 63 63 E 3 6 30.03 1017 10 16 N/A
12:15 pm 12:15 Sunny 74 23.4 61 16.2 64 64 N N/A 30.03 1017 10 16 N/A
12:35 pm 12:35 Partly Cloudy 76 24.5 63 17 63 63 N N/A 30.00 1016 10 16 N/A
12:55 pm 12:55 Mostly Cloudy 76 24.3 61 16.2 61 61 W 5 7 29.97 1015 10 16 N/A
1:15 pm 13:15 Mostly Cloudy 76 24.4 62 16.6 62 62 N N/A 29.97 1015 10 16 N/A
1:35 pm 13:35 Partly Cloudy 78 25.5 62 16.8 59 59 NW 3 6 29.97 1015 10 16 N/A
1:55 pm 13:55 Sunny 78 25.7 61 16.2 56 56 NNW 3 6 29.97 1015 10 16 N/A
2:15 pm 14:15 Sunny 78 25.6 61 15.9 55 55 N N/A 29.97 1015 10 16 N/A
2:35 pm 14:35 Sunny 79 26.3 60 15.6 52 52 N N/A 29.97 1015 10 16 N/A
2:55 pm 14:55 Partly Cloudy 79 26.2 62 16.9 57 57 N N/A 29.97 1015 10 16 N/A
3:15 pm 15:15 Partly Cloudy 76 24.5 65 18.4 69 69 NE 7 11 29.97 1015 10 16 N/A
3:35 pm 15:35 Sunny 78 25.6 64 18 63 63 ENE 6 9 29.94 1014 10 16 N/A
3:55 pm 15:55 Sunny 79 26.1 64 17.6 60 60 NE 5 7 29.94 1014 10 16 N/A
4:15 pm 16:15 Sunny 79 26.3 64 17.7 59 59 ENE 6 9 29.94 1014 10 16 N/A
4:35 pm 16:35 Partly Cloudy 77 25.1 63 17.2 62 62 ENE 5 7 29.94 1014 10 16 N/A
4:55 pm 16:55 Mostly Cloudy 78 25.3 64 17.6 62 62 E 6 9 29.94 1014 10 16 N/A
5:15 pm 17:15 Mostly Cloudy 77 25.2 64 17.7 63 63 ENE 3 6 29.91 1013 10 16 N/A
5:35 pm 17:35 Partly Cloudy 79 26 62 16.8 57 57 ENE 5 7 29.91 1013 10 16 N/A
5:55 pm 17:55 Partly Cloudy 80 26.4 64 17.5 58 58 E 6 9 29.91 1013 10 16 N/A
6:15 pm 18:15 Partly Cloudy 78 25.8 63 17.3 59 59 ENE 5 7 29.91 1013 10 16 N/A
6:35 pm 18:35 Sunny 78 25.8 62 16.7 57 57 ENE 5 7 29.91 1013 10 16 N/A
6:55 pm 18:55 Sunny 78 25.7 64 17.6 61 61 ENE 7 11 29.91 1013 10 16 N/A
7:15 pm 19:15 Sunny 77 25.1 63 17.3 62 62 ENE 6 9 29.91 1013 10 16 N/A
7:35 pm 19:35 Sunny 75 24.1 64 17.6 67 67 ENE 3 6 29.91 1013 10 16 N/A
7:55 pm 19:55 Sunny 75 23.7 66 18.7 74 74 ENE 5 7 29.91 1013 10 16 N/A
8:15 pm 20:15 Sunny 74 23.1 66 18.8 77 77 ENE 5 7 29.94 1014 10 16 N/A
8:35 pm 20:35 Sunny 73 22.5 65 18.6 79 79 E 5 7 29.94 1014 10 16 N/A
8:55 pm 20:55 Clear 71 21.6 65 18.4 82 82 E 5 7 29.94 1014 10 16 N/A
9:15 pm 21:15 Clear 71 21.6 65 18.1 81 81 E 7 11 29.94 1014 10 16 N/A
9:35 pm 21:35 Clear 70 21.1 65 18.2 84 84 E 8 13 29.94 1014 10 16 N/A
9:55 pm 21:55 Clear 69 20.7 65 18.3 86 86 E 8 13 29.94 1014 10 16 N/A
10:15 pm 22:15 Clear 69 20.7 64 18 85 85 E 7 11 29.94 1014 10 16 N/A
10:35 pm 22:35 Clear 68 20 64 18 88 88 ESE 7 11 30.00 1016 10 16 N/A
10:55 pm 22:55 Clear 67 19.5 64 17.8 90 90 ESE 6 9 30.00 1016 10 16 N/A
11:15 pm 23:15 Clear 67 19.6 64 17.7 89 89 SE 3 6 30.00 1016 10 16 N/A
11:35 pm 23:35 Clear 67 19.3 64 17.6 90 90 ESE 5 7 30.00 1016 10 16 N/A
11:55 pm 23:55 Partly Cloudy 66 19.1 64 17.6 91 91 SE 5 7 30.00 1016 10 16 N/A

Powered by AerisWeather